Airfield :
LOGIN :

Register | Disclaimer

   EN    FR    IT 

 










Legend :    VFR   Marginal VFR   IFR   Intensive IFR   Very Intensive IFR
Visi :
Ceiling :
>= 8 km
>= 3000ft
5 to 8 km
1000 to 3000 ft
1500m to 5 km
500 to 1000 ft
800 to 1500m
200 to 500 ft
< 800m
< 200 ft
Symbols :   Thunderstorms  Fog  Heavy snow  Heavy precipitations  Wind > 20 kt
SIGMETs :     Misc.  Thunderstorms  Icing  Turbulence  Mountain Waves  Volcanic Ashes







- Airport Elevation : 138 ft
- IATA code : RLG


ETNL - Rostock Laage

CURRENT METAR :
  • 220120Z 28008KT 6000 OVC005 09/07 Q1032 YLO

EXPIRED METARs :
  • 220020Z 26007KT 6000 OVC006 09/08 Q1032 YLO
  • 212320Z 25006KT 6000 OVC006 09/08 Q1032 YLO

TAF TAF ETNL
Valid from the 22 at 00:00 until the 22 at 12:00 UTC


212300Z 2200/2212 25008KT 5000 BR OVC006
BECMG 2200/2202 27005KT 3000 BR OVC003
TEMPO 2202/2208 23007KT 0400 FG VV001
BECMG 2209/2211 20007KT 8000 NSW SCT010 BY ETGL
No reported NOTAMs for that airfield.



MET'MAP, your aeronautical weather chart ! - Copyright ORBIFLY December 2007 - Disclaimer

ORBIFLY MET'MAP TEAM :

Programming & Development : Alexandra Zaïnal
Concept & Development : Baudouin d'Aumeries
Co-Development & Prog : Marc-Olivier Méhu
Technical & hardware support : Manuel Goepfert

Contact : metmap@orbifly.com




SOURCES & CREDITS :

   NOAA